Вернуться в каталог

IRIDIUM 33 DEB

АктивенPO
NORAD 38474·DEBRIS·🇺🇸 United States

Запущен Sep 14, 1997 с Baikonur Cosmodrome

Loading…

Ближайшие Пролёты (ближайшие 24 часа)

TLE

УстаревающийSource: Space-Track

Эпоха: Sep 5, 2026, 07:12 UTC

1 38474U 97051AAB 26248.30062090  .00000884  00000-0  21427-3 0  9999
2 38474  86.3372 253.7660 0022510 274.0815  85.7817 14.51761042691848

Отслеживайте IRIDIUM 33 DEB в реальном времени с AllMySat

Download on the App Store